Regional Weather Roundup
Issued by NWS Charleston, SC

Current Version | Previous Version | Graphics & Text | Print | Product List | Glossary On
Versions: 1 2 3 4 5 6 7 8 9 10 11 12 13 14 15 16 17 18 19 20 21 22 23 24 25 26 27 28 29 30 31 32 33 34 35 36 37 38 39 40 41 42 43 44 45 46 47 48 49 50
000 ASUS42 KCHS 032227 RWRCHS REGIONAL WEATHER ROUNDUP NATIONAL WEATHER SERVICE CHARLESTON SC 600 PM EDT FRI JUL 03 2015 NOTE: "FAIR" INDICATES FEW OR NO CLOUDS BELOW 12,000 FEET WITH NO SIGNIFICANT WEATHER AND/OR OBSTRUCTIONS TO VISIBILITY. NOT ALL STATIONS ARE QUALITY CONTROLLED BY THE NATIONAL WEATHER SERVICE. USE DATA WITH CAUTION...ESPECIALLY DEWPOINT OBSERVATIONS. SCZ027-030-031-034>040-042>050-032300- ...SOUTHEAST SOUTH CAROLINA... CITY SKY/WX TMP DP RH WIND PRES REMARKS N CHARLESTON CLOUDY 78 71 79 SW8 29.99F WATERFRONT PAR N/A 75 71 87 SW7 29.97F MOUNT PLEASANT LGT RAIN 75 72 88 S6 29.99S JOHNS ISLAND FAIR 79 73 83 SW6 30.00S PINOPOLIS NOT AVBL MONCKS CORNER FAIR 77 70 78 SW6 29.98S SUMMERVILLE FAIR 77 73 88 SW5 30.00S BEAUFORT MCAS PTSUNNY 85 72 65 NW8 30.00R HX 91 BEAUFORT ARPT FAIR 88 72 58 NW7 29.99S HX 94 HILTON HEAD IS MOSUNNY 88 73 62 S6 30.02S HX 96 WALTERBORO MOCLDY 79 68 69 W6 30.00S ALLENDALE FAIR 82 70 65 CALM 29.99S ...SOUTHERN MIDLANDS AND PEE DEE... CITY SKY/WX TMP DP RH WIND PRES REMARKS GEORGETOWN NOT AVBL KINGSTREE NOT AVBL ORANGEBURG CLOUDY 80 72 76 S9 29.98R BARNWELL FAIR 82 70 65 W7 30.00S AIKEN NOT AVBL MANNING FAIR 73 70 88 SW7 29.97S COLUMBIA PTSUNNY 84 67 56 SW13G24 29.94R SUMTER CLOUDY 83 69 60 SW14 29.93R FLORENCE PTSUNNY 84 71 65 SW12 29.92R MYRTLE BEACH PTSUNNY 75 70 83 W12 29.97R N MYRTLE BEACH LGT RAIN 77 73 87 SW10 29.94F $$ GAZ063-065-086>088-099>101-113>116-118-119-134>141-150-032300- ...SOUTHEAST GEORGIA... CITY SKY/WX TMP DP RH WIND PRES REMARKS SAVANNAH ARPT PTSUNNY 90 69 50 NW5 30.00S HX 94 HUNTER AAF SUNNY 91 72 53 N5 29.97S HX 99 FORT STEWART SUNNY 93 64 38 SW10 29.98S HX 94 STATESBORO NOT AVBL SYLVANIA MOCLDY 87 73 63 CALM 30.01S HX 94 CLAXTON FAIR 88 73 62 CALM 30.00S HX 96 ...CSRA...CENTRAL AND FAR SOUTHEAST GEORGIA... CITY SKY/WX TMP DP RH WIND PRES REMARKS THOMSON PTSUNNY 84 76 76 SW8 30.02S HX 92 AUGUSTA-BUSH PTSUNNY 84 70 62 W10G17 29.98R AUGUSTA-DANIEL PTSUNNY 83 70 64 VRB7 29.99S SWAINSBORO FAIR 88 73 62 CALM 30.01S HX 96 VIDALIA MOSUNNY 90 68 48 SW15 30.00S HAZE HX 93 EASTMAN FAIR 91 71 50 SW8G17 30.02S HX 97 HAZLEHURST FAIR 91 70 49 W7 30.01R HX 97 ALMA SUNNY 91 69 48 W10 30.01F HX 96 WAYCROSS SUNNY 95 73 48 W10 30.02S HX 104 JESUP FAIR 95 66 38 NW10 30.01S HX 98 BAXLEY FAIR 91 70 49 W7 30.01S HX 97 BRUNSWICK SUNNY 93 70 46 SW9 30.02S HX 99 SAINT SIMONS SUNNY 86 76 71 S7G18 30.02R HX 96 $$ SCZ027-028-034-036>038-045-046-048>050-GAZ119-141-032300- ...LAKE AND SUPPLEMENTAL COASTAL OBSERVATIONS... STATION/POSITION TIME TEMP WIND PRES WAVE SWELL AIR SEA DIR/SP/G HT/PER HT/PER/DIR (UTC) (F) (DEG/KT/KT) (MB) (FT/S) (FT/S/D) UPR LAKE MARION NOT AVBL WINYAH BAY 2100 73 240/ 11 1013.0S LAKE MURRAY 2100 79 250/ 9/ 14 1013.2S ACE BASIN NERRS 2100 83 170/ 4 1016.0S FORT PULASKI 2200 85 85 60/ 7/ 9 1016.3R SAPELO ISLAND 2200 92 240/ 12 1016.0S $$ ANZ835-935-AMZ111-154-330-350-352-354-370-450-454-472-032300- ...C-MAN AND BUOY OBSERVATIONS... STATION/POSITION TIME TEMP WIND PRES WAVE SWELL AIR SEA DIR/SP/G HT/PER HT/PER/DIR (UTC) (F) (DEG/KT/KT) (MB) (FT/S) (FT/S/D) BUOY 41004 2150 80 82 240/ 16/ 19 1015.2F 5/ 5 2/ 8 BUOY 41008 2150 81 80 190/ 12/ 14 1016.7S 2/ 9 2/ 90/ 9 FOLLY BEACH CMAN 2200 78 230/ 7/ 10 1015.8F CAPERS NEARSHORE 2108 78 230/ 16/ 21 1016.5F FRIPP NEARSHORE NOT AVBL STATION/POSITION TIME TEMP WIND PRES WAVE SWELL AIR SEA DIR/SP/G HT/PER HT/PER/DIR (UTC) (F) (DEG/KT/KT) (MB) (FT/S) (FT/S/D) 5E ST. MARYS GA 2121 78 N/A 2/ 9 FRYING PAN BUOY 2150 81 80 210/ 19/ 25 1014.8R 6/ 6 2/150/ 9 BUOY 41025 2150 81 81 210/ 19/ 21 1013.6F 5/ 7 2/130/15 CAPE LOOKOUT NC 2200 80 210/ 17/ 22 1013.6R BUOY 41002 2150 81 81 230/ 12/ 14 1018.6R 6/ 7 5/250/ 7 BUOY 41010 2120 83 85 170/ 8/ 10 1019.0F ST AUGUSTINE FL 2200 77 77 160/ 10/ 11 1018.3R $$

USA.gov is the U.S. government's official web portal to all federal, state and local government web resources and services.